[[{"header":{"parameterUnit":"m.s-1","parameterCategory":1,"la1":30.2992,"la2":30.254,"lo1":-89.0895,"lo2":-89.0443,"dy":0.0025,"dx":0.0025,"nx":19,"ny":19,"refTime":"2026-05-01T09:00:00:Z","depth":0,"parameterNumber":2,"parameterNumberName":"U-component_of_WINDS"},"data":[0,0,0,-5.9731,-5.9737,-6.0011,-6.0012,-6.0382,-6.0385,0,0,0,0,0,0,0,0,0,0,0,-5.9661,-5.9664,-5.973,-5.9737,-6.0011,-6.0012,-6.0381,-6.0385,0,0,0,0,0,0,0,0,0,0,0,-5.966,-5.9663,-5.9667,-5.9738,-6.0011,-6.0012,-6.038,-6.0167,0,0,0,0,0,0,0,0,0,0,-5.9897,-5.9845,-5.9662,-5.9667,-5.974,-6.0011,-6.0012,-6.0156,-6.018,-6.0266,0,-6.0346,0,-6.0371,-6.0411,-6.0413,0,0,0,-5.9728,-5.9825,-5.9888,-5.9668,-5.9743,-6.001,-5.9885,-6.0169,-6.0196,-6.0298,-6.0351,-6.0364,-6.0378,-6.0414,-6.0416,-6.0941,-6.0944,0,0,-5.9713,-5.9717,-5.9869,-5.9906,-5.9865,-5.9876,-5.9894,-6.0185,-6.0243,-6.0352,-6.0372,-6.0384,-6.0416,-6.0419,-6.0938,-6.0942,0,0,0,-5.9676,-5.9707,-5.9762,-5.9892,-5.9939,-5.9884,-5.9904,-6.023,-6.0248,-6.0376,-6.0388,-6.0419,-6.0423,-6.0935,-6.094,-6.1087,0,0,0,-5.9666,-5.9685,-5.9756,-5.9761,-5.9935,-6.0089,-5.9943,-6.0228,-6.0261,-6.0386,-6.0419,-6.0427,-6.0932,-6.0938,-6.1076,-6.1157,0,0,0,-5.9639,-5.9682,-5.9725,-5.9761,-5.9879,-6.0084,-6.0118,-6.0235,-6.0269,-6.0413,-6.0428,-6.093,-6.0937,-6.1067,-6.1141,-6.1299,0,0,0,-5.9612,-5.9852,-5.9728,-6.0,-5.9877,-6.0172,-6.0116,-6.0336,-6.0477,-6.0421,-6.0932,-6.0939,-6.1064,-6.1132,-6.1288,-6.1434,-6.1494,0,0,-5.9917,-5.9889,-6.0049,-5.9946,-6.0265,-6.013,-6.047,-6.0595,-6.0605,-6.0828,-6.0841,-6.108,-6.114,-6.1296,-6.1824,-6.1872,0,0,0,-6.0147,-6.0263,-6.0346,-6.0481,-6.0582,-6.0676,-6.0748,-6.0794,-6.0984,-6.0721,-6.1177,-6.1213,-6.1304,-6.1374,-6.1415,-6.1494,-6.097,-6.097,-6.0969,-6.0589,-6.0587,-6.0852,-6.0885,-6.1015,-6.1087,-6.1193,-6.1268,-6.1228,-6.1336,-6.1404,-6.1724,-6.1805,-6.1836,-6.1918,-6.1477,-6.1478,-6.1478,-6.1479,-6.1039,-6.1203,-6.1143,-6.138,-6.1377,-6.1575,-6.1652,-6.1617,-6.1802,-6.1673,-6.1753,-6.1616,-6.1889,-6.1961,-6.149,-6.1488,-6.1487,-6.1485,-6.1485,-6.1331,-6.1409,-6.146,-6.1654,-6.1804,-6.1826,-6.2006,-6.1996,-6.1987,-6.2067,-6.2138,-6.2136,-6.2134,-6.21,-6.2102,-6.2103,-6.2104,-6.2105,-6.2105,-6.1615,-6.1667,-6.1821,-6.1947,-6.2031,-6.2142,-6.2214,-6.2297,-6.2387,-6.2365,-6.2366,-6.2317,-6.1914,-6.1815,-6.2123,-6.212,-6.2117,-6.2116,-6.2114,-6.2079,-6.1971,-6.2208,-6.2293,-6.244,-6.259,-6.2572,-6.2742,-6.2809,-6.2898,-6.2831,-6.2533,-6.2504,-6.2472,-6.239,-6.2828,-6.2828,-6.2828,-6.2828,-6.2328,-6.231,-6.255,-6.2687,-6.2818,-6.2827,-6.3094,-6.3152,-6.3195,-6.3236,-6.317,-6.3059,-6.3026,-6.3017,-6.2973,-6.2896,-6.3453,-6.3454,-6.3455,-6.2614,-6.2609,-6.284,-6.2879,-6.2993,-6.309,-6.3342,-6.3501,-6.3526,-6.348,-6.3269,-6.3242,-6.3063,-6.3004,-6.2958,-6.2889,-6.2749,0,0]},{"header":{"parameterUnit":"m.s-1","parameterCategory":1,"la1":30.2992,"la2":30.254,"lo1":-89.0895,"lo2":-89.0443,"dy":0.0025,"dx":0.0025,"nx":19,"ny":19,"refTime":"2026-05-01T09:00:00:Z","depth":0,"parameterNumber":3,"parameterNumberName":"V-component_of_WINDS"},"data":[0,0,0,-6.0043,-6.0046,-6.0202,-6.0203,-6.0399,-6.04,0,0,0,0,0,0,0,0,0,0,0,-5.9999,-6.0001,-6.0043,-6.0047,-6.0202,-6.0203,-6.0398,-6.04,0,0,0,0,0,0,0,0,0,0,0,-5.9998,-6.0,-6.0002,-6.0047,-6.0202,-6.0203,-6.0398,-6.0281,0,0,0,0,0,0,0,0,0,0,-6.013,-6.0092,-6.0,-6.0002,-6.0048,-6.0202,-6.0203,-6.0275,-6.0288,-6.0328,0,-6.0368,0,-6.0387,-6.0414,-6.0414,0,0,0,-6.0044,-6.0082,-6.0122,-6.0002,-6.005,-6.0202,-6.0132,-6.0282,-6.0297,-6.0345,-6.037,-6.0378,-6.0391,-6.0415,-6.0416,-6.066,-6.0661,0,0,-6.0036,-6.0028,-6.0112,-6.0131,-6.0112,-6.0127,-6.0136,-6.0291,-6.0317,-6.0371,-6.0382,-6.0394,-6.0416,-6.0418,-6.0659,-6.066,0,0,0,-6.0013,-6.0022,-6.0058,-6.0123,-6.0152,-6.0131,-6.0142,-6.031,-6.0323,-6.0384,-6.0396,-6.0417,-6.042,-6.0658,-6.0659,-6.0713,0,0,0,-6.0007,-6.0008,-6.0055,-6.0051,-6.0149,-6.0234,-6.0158,-6.0312,-6.033,-6.0395,-6.0417,-6.0422,-6.0656,-6.0659,-6.0709,-6.0739,0,0,0,-5.9988,-6.0006,-6.003,-6.005,-6.0117,-6.0232,-6.0253,-6.0316,-6.0337,-6.0415,-6.0422,-6.0655,-6.0658,-6.0705,-6.0733,-6.0799,0,0,0,-5.9964,-6.0076,-6.003,-6.0159,-6.0116,-6.0265,-6.0252,-6.0363,-6.0436,-6.0418,-6.0657,-6.0659,-6.0704,-6.0729,-6.0795,-6.0853,-6.0877,0,0,-6.01,-6.0092,-6.0168,-6.0132,-6.0287,-6.0242,-6.0403,-6.0477,-6.0491,-6.0602,-6.0608,-6.071,-6.0733,-6.0798,-6.1016,-6.1035,0,0,0,-6.0208,-6.0262,-6.0305,-6.0375,-6.0435,-6.0487,-6.0537,-6.0563,-6.0658,-6.0548,-6.0753,-6.0767,-6.0806,-6.0833,-6.0849,-6.0881,-6.0672,-6.0672,-6.0672,-6.0388,-6.04,-6.0525,-6.0555,-6.0622,-6.0671,-6.0725,-6.0768,-6.0761,-6.0809,-6.0842,-6.0973,-6.1005,-6.1017,-6.1051,-6.0874,-6.0875,-6.0875,-6.0875,-6.0586,-6.0663,-6.0649,-6.0765,-6.0775,-6.0871,-6.0921,-6.0911,-6.0999,-6.095,-6.0985,-6.0928,-6.1038,-6.1067,-6.0879,-6.0878,-6.0878,-6.0878,-6.0877,-6.0703,-6.0742,-6.0773,-6.0873,-6.0947,-6.0972,-6.1057,-6.1064,-6.107,-6.1104,-6.1137,-6.1136,-6.1133,-6.112,-6.112,-6.1121,-6.1121,-6.1121,-6.1122,-6.0813,-6.0846,-6.0919,-6.0989,-6.1032,-6.109,-6.1138,-6.1179,-6.1226,-6.1224,-6.1224,-6.1209,-6.1048,-6.1005,-6.1129,-6.1127,-6.1127,-6.1126,-6.1125,-6.1006,-6.0963,-6.1075,-6.1118,-6.1199,-6.127,-6.1276,-6.136,-6.1395,-6.1435,-6.1413,-6.1293,-6.1284,-6.1271,-6.1236,-6.1412,-6.1412,-6.1412,-6.1412,-6.1104,-6.11,-6.1214,-6.1282,-6.135,-6.1366,-6.1486,-6.1522,-6.1552,-6.1573,-6.1549,-6.1504,-6.149,-6.1489,-6.1472,-6.1439,-6.1662,-6.1662,-6.1663,-6.1222,-6.1224,-6.1328,-6.1359,-6.1421,-6.1473,-6.1585,-6.166,-6.1685,-6.1673,-6.1589,-6.1579,-6.1505,-6.1482,-6.1467,-6.144,-6.138,0,0]}]]